Shi Jian 9B

operational
NORAD ID: 38861 Int'l Des: 2012-056 Owner: ZZWYZ Country: CN
LEOCIRCULARRETROGRADESSO

About Shi Jian 9B

Description loading...

Live Position

Loading 3D Globe...

Upcoming Passes

Altitude History

Altitude vs Time

uPlot chart will show altitude changes over time

Two-Line Element Set

1 38861U 12056B 26062.55462517 .00003055 00000-0 31498-3 0 9992
2 38861 97.5910 50.5914 0014604 200.8499 159.2126 14.90856031723982
Epoch: Mar 3, 2026 • Age: 28 hours

Current Status

Altitude 619.8 km
Velocity 7.55 km/s
Sub-Earth Point -57.10°S, 152.17°W
Launch Date Oct 14, 2012
Age 13.3 years
Type other

Technical Details

Classification Payload
Mass 260.00 kg
Dry Mass 260.00 kg
Total Mass 260.00 kg
Length 1.50 m
Diameter 1.90 m
Span 4.00 m
Shape Box + 1 Pan
Manufacturer DFHZ
Bus Type CAST-100
Phase Status In Orbit
Owner/State ZZWYZ/CN

Large Constellations

Loading constellations...